Regional Weather Roundup
Issued by NWS

Home | Current Version | Previous Version | Graphics & Text | Print | Product List | Glossary On
Versions: 1 2 3 4 5 6 7 8 9 10 11 12 13 14 15 16 17 18 19 20 21 22 23 24 25 26 27 28 29 30 31 32 33 34 35 36 37 38 39 40 41 42 43 44 45 46 47 48 49 50
000
ASUS43 KDMX 291907
RWRIA

WEATHER ROUNDUP FOR IOWA
NATIONAL WEATHER SERVICE DES MOINES IA
200 PM CDT MON JUN 29 2015

NOTE: "FAIR" INDICATES FEW OR NO CLOUDS BELOW 12,000 FEET WITH NO
SIGNIFICANT WEATHER AND/OR OBSTRUCTIONS TO VISIBILITY.

* - THESE STATIONS ARE NOT NWS STATIONS...THUS NOT UNDER NWS
QUALITY CONTROL.  THEY ALSO DO NOT REPORT WEATHER SUCH
AS PRECIPITATION OR FOG.

IAZ001>003-012>014-020>022-031>034-043>046-292000-
   NORTHWEST IOWA

CITY           SKY/WX    TMP DP  RH WIND       PRES   REMARKS
CARROLL *      MOSUNNY   81  63  54 NW12      29.92F HX  82
CHEROKEE *     MOSUNNY   79  63  57 N7        29.92F HX  80
DENISON *      MOSUNNY   79  64  61 NW12      29.92F HX  81
LE MARS *      SUNNY     82  61  47 NW9       29.94F HX  83
ORANGE CITY *  SUNNY     79  63  57 NW6       29.94S HX  80
SHELDON *      SUNNY     81  63  54 NW12      29.92F HX  82
SIOUX CITY     SUNNY     84  60  44 VRB6      29.93F HX  84
SPENCER        MOSUNNY   82  61  48 NW10      29.92S HX  83
STORM LAKE *   SUNNY     81  61  50 NW12      29.94F HX  81
$$

IAZ055>058-069>071-079>083-090>094-292000-
   SOUTHWEST IOWA

CITY           SKY/WX    TMP DP  RH WIND       PRES   REMARKS
ATLANTIC *     MOSUNNY   82  63  51 NW14G20   29.93F HX  83
AUDUBON *      MOSUNNY   81  64  57 N10       29.94S HX  82
CLARINDA *     SUNNY     84  64  51 NW9G16    29.95S HX  86
COUNCIL BLFS * SUNNY     82  63  51 NW12      29.95F HX  83
CRESTON *      PTSUNNY   82  63  51 NW13G21   29.93S HX  83
HARLAN  *      MOSUNNY   81  66  61 NW10G17   29.97S HX  83
LAMONI         MOSUNNY   83  63  50 N12       29.91S HX  84
RED OAK *      MOSUNNY   84  64  51 N9G16     29.94S HX  86
SHENANDOAH *   MOSUNNY   84  64  51 NW8       29.94F HX  86
$$

IAZ047>049-059>061-072>074-084-292000-
   CENTRAL IOWA

CITY           SKY/WX    TMP DP  RH WIND       PRES   REMARKS
AMES           MOSUNNY   80  64  58 NW13      29.89S HX  82
ANKENY *       MOSUNNY   81  64  57 NW10      29.89S HX  82
CHARITON *     MOSUNNY   81  66  61 NW12      29.90S HX  83
DES MOINES     CLOUDY    83  63  50 N12       29.89S HX  84
GRINNELL*      PTSUNNY   79  66  65 NW8       29.89R HX  81
KNOXVILLE *    MOSUNNY   81  64  57 NW14      29.88S HX  82
MARSHALLTOWN   PTSUNNY   79  65  62 NW9       29.86F HX  81
PELLA *        SUNNY     81  68  65 NW10      29.89S HX  83
PERRY *          N/A     81  63  54 N12G17    29.91S HX  82
$$

IAZ004>006-015-016-023>025-035-036-292000-
   NORTH CENTRAL IOWA

CITY           SKY/WX    TMP DP  RH WIND       PRES   REMARKS
ALGONA *       MOSUNNY   81  63  54 NW9       29.90S HX  82
CLARION *      MOSUNNY   81  63  54 NW13G18   29.89S HX  82
ESTHERVILLE    SUNNY     79  63  57 NW13G18   29.90F HX  80
FORT DODGE *   MOSUNNY   79  63  57 NW8       29.91F HX  80
MASON CITY     MOSUNNY   81  63  54 NW16      29.88F HX  82
FOREST CITY *  MOSUNNY   79  63  57 NW13      29.88S HX  80
IOWA FALLS *   PTSUNNY   81  64  57 NW12      29.89F HX  82
$$

IAZ007>011-017>019-026>030-037>042-050>054-066-292000-
   NORTHEAST IOWA

CITY           SKY/WX    TMP DP  RH WIND       PRES   REMARKS
CEDAR RAPIDS   MOSUNNY   78  66  66 NW12      29.85S HX  80
CHARLES CITY * MOSUNNY   81  66  61 N12       29.86F HX  83
CLINTON *      PTSUNNY   73  64  73 SW6       29.86S
DECORAH *        N/A    N/A N/A N/A MISG        N/A
DUBUQUE        MOSUNNY   76  63  64 CALM      29.84F
MONTICELLO *   MOSUNNY   79 -33   1 W8        29.83F
OELWEIN *      MOSUNNY   79  64  61 NW12G18   29.85F HX  81
WATERLOO       MOSUNNY   82  64  54 N9        29.83F HX  83
$$

IAZ064-065-067-068-078-292000-
   EAST CENTRAL IOWA

CITY           SKY/WX    TMP DP  RH WIND       PRES   REMARKS
DAVENPORT      MOSUNNY   76  65  68 W8        29.85F
IOWA CITY      MOSUNNY   80  65  59 W9        29.86S HX  82
MT. PLEASANT * MOSUNNY   82  61  47 NW7       29.86S HX  83
MUSCATINE *    PTSUNNY   79  64  61 W8        29.85S HX  81
QUAD CITIES    MOSUNNY   76  64  66 W8        29.84F
$$

IAZ062-063-075>077-085>089-095>099-292000-
   SOUTHEAST IOWA

CITY           SKY/WX    TMP DP  RH WIND       PRES   REMARKS
BURLINGTON     MOSUNNY   79  66  64 NW6       29.86S HX  81
FAIRFIELD *    MOSUNNY   79  66  65 NW12      29.87S HX  81
FORT MADISON * PTSUNNY   79  70  73 W6        29.87S HX  81
KEOKUK *       PTSUNNY   81  68  65 W8        29.86S HX  83
OSKALOOSA *      N/A     79  66  65 NW12      29.88S HX  81
CENTERVILLE *  SUNNY     81  66  61 NW14      29.91S HX  83
OTTUMWA        PTSUNNY   79  68  69 NW12      29.85S HX  81
WASHINGTON *   MOSUNNY   79  66  65 NW9G15    29.87S HX  81
$$

ABBREVIATIONS USED IN REMARKS
   TC - TEMPERATURES IN CELSIUS
  WCI - WIND CHILL INDEX
   HX - HEAT INDEX
  VSB - VISIBILITY
$$



USA.gov is the U.S. government's official web portal to all federal, state and local government web resources and services.